Location: Burleson Alternative School
(32.5290°N, 97.3406°W)
Time: 00:30:59
(UTC+00:00)

JUGNU - Pass Details

Date: 07 December 2024
Orbit: 834 x 861 km, 20.0° (Epoch: 19 January)

Event Time Altitude Azimuth Distance (km) Brightness Sun altitude
Exits shadow 12:14:34 - 236° (SW) 3,180 ? -13.3°
Reaches altitude 10° 12:17:06 10° 223° (SW) 2,426 ? -12.8°
Maximum altitude 12:21:27 22° 175° (S) 1,744 ? -11.9°
Drops below altitude 10° 12:25:49 10° 126° (SE) 2,434 ? -11.0°
Sets 12:28:54 0° 111° (ESE) 3,372 ? -10.4°
